| time (UTC) | temp F | wind direction | speed MPH | gust MPH | rain 1hr in | rain 24hr in | rain mn in | humidity % | barometer mb |
| 20260905123050 | 62 | 0.0 | 0.0 | 0.00 | 1.14 | 0.08 | 75 | 1008.1 | |
| 20260905121555 | 62 | 0.0 | 0.0 | 0.00 | 1.14 | 0.08 | 76 | 1007.9 | |
| 20260905120054 | 62 | 0.0 | 0.0 | 0.00 | 1.14 | 0.08 | 75 | 1007.8 | |
| 20260905114558 | 61 | 0.0 | 0.0 | 0.00 | 1.21 | 0.08 | 76 | 1007.8 | |
| 20260905113053 | 62 | 0.0 | 0.0 | 0.00 | 1.21 | 0.08 | 76 | 1007.7 | |
| 20260905111604 | 61 | 0.0 | 0.0 | 0.00 | 1.21 | 0.08 | 78 | 1007.8 | |
| 20260905104613 | 59 | 0.0 | 0.0 | 0.00 | 1.25 | 0.08 | 82 | 1007.6 | |
| 20260905103052 | 58 | 0.0 | 0.0 | 0.00 | 1.25 | 0.08 | 87 | 1007.2 | |
| 20260905101554 | 60 | 0.0 | 0.0 | 0.00 | 1.24 | 0.07 | 82 | 1007.1 | |
| 20260905100106 | 61 | 0.0 | 0.0 | 0.00 | 1.24 | 0.07 | 78 | 1006.9 | |
| 20260905094554 | 60 | 0.0 | 0.0 | 0.00 | 1.27 | 0.07 | 79 | 1007.0 | |
| 20260905093054 | 60 | 0.0 | 0.0 | 0.00 | 1.27 | 0.07 | 80 | 1006.8 | |
| 20260905091608 | 60 | 0.0 | 0.0 | 0.00 | 1.27 | 0.07 | 81 | 1006.7 | |
| 20260905084614 | 60 | 0.0 | 0.0 | 0.00 | 1.26 | 0.07 | 84 | 1006.4 | |
| 20260905083100 | 60 | 0.0 | 0.0 | 0.00 | 1.26 | 0.07 | 83 | 1006.5 | |
| 20260905081605 | 59 | 0.0 | 0.0 | 0.00 | 1.26 | 0.07 | 83 | 1006.3 | |
| 20260905080052 | 59 | 0.0 | 0.0 | 0.00 | 1.26 | 0.07 | 83 | 1006.2 | |
| 20260905074621 | 59 | 0.0 | 0.0 | 0.00 | 1.26 | 0.07 | 85 | 1006.1 | |
| 20260905073059 | 59 | 0.0 | 0.0 | 0.00 | 1.26 | 0.07 | 86 | 1005.9 | |
| 20260905071555 | 58 | 0.0 | 0.0 | 0.00 | 1.26 | 0.07 | 88 | 1005.8 | |
| 20260905070108 | 58 | 0.0 | 0.0 | 0.00 | 1.26 | 0.07 | 88 | 1005.6 | |
| 20260905064552 | 58 | 0.0 | 0.0 | 0.00 | 1.26 | 0.07 | 88 | 1005.5 | |
| 20260905063059 | 57 | 0.0 | 0.0 | 0.00 | 1.26 | 0.07 | 89 | 1005.5 | |
| 20260905061613 | 57 | 0.0 | 0.0 | 0.00 | 1.26 | 0.07 | 89 | 1005.3 | |
| 20260905060054 | 57 | 0.0 | 0.0 | 0.00 | 1.26 | 0.07 | 90 | 1005.1 | |
| 20260905054557 | 56 | 0.0 | 0.0 | 0.00 | 1.26 | 0.07 | 91 | 1004.9 | |
| 20260905053056 | 56 | 0.0 | 0.0 | 0.02 | 1.26 | 0.07 | 92 | 1004.9 | |
| 20260905051556 | 56 | 0.0 | 0.0 | 0.02 | 1.26 | 0.07 | 92 | 1004.7 | |
| 20260905050052 | 56 | 0.0 | 0.0 | 0.02 | 1.26 | 0.07 | 93 | 1004.6 | |
| 20260905044554 | 56 | 0.0 | 0.0 | 0.02 | 1.26 | 0.07 | 93 | 1004.5 | |
| 20260905043058 | 56 | 0.0 | 0.0 | 0.00 | 1.24 | 0.04 | 91 | 1004.3 | |
| 20260905041559 | 56 | 0.0 | 0.0 | 0.00 | 1.24 | 0.04 | 91 | 1004.4 | |
| 20260905040056 | 56 | 0.0 | 0.0 | 0.00 | 1.24 | 0.04 | 91 | 1004.2 | |
| 20260905034557 | 56 | 0.0 | 0.0 | 0.00 | 1.24 | 0.04 | 90 | 1004.2 | |
| 20260905033059 | 56 | 0.0 | 0.0 | 0.00 | 1.24 | 0.04 | 91 | 1003.9 | |
| 20260905031600 | 56 | 0.0 | 0.0 | 0.00 | 1.24 | 0.04 | 91 | 1003.8 | |
| 20260905030058 | 56 | 0.0 | 0.0 | 0.00 | 1.24 | 0.04 | 91 | 1003.7 | |
| 20260905024554 | 56 | 0.0 | 0.0 | 0.00 | 1.24 | 0.04 | 93 | 1003.2 | |
| 20260905023054 | 56 | 0.0 | 0.0 | 0.00 | 1.24 | 0.04 | 94 | 1003.1 | |
| 20260905021600 | 56 | 0.0 | 0.0 | 0.00 | 1.24 | 0.04 | 95 | 1002.9 | |
| 20260905020100 | 56 | 0.0 | 0.0 | 0.04 | 1.24 | 0.04 | 95 | 1002.7 | |
| 20260905014554 | 56 | 0.0 | 0.0 | 0.04 | 1.24 | 0.04 | 94 | 1002.6 | |
| 20260905013102 | 56 | 0.0 | 0.0 | 0.04 | 1.24 | 0.04 | 95 | 1002.5 | |
| 20260905011559 | 56 | 0.0 | 0.0 | 0.04 | 1.24 | 0.04 | 95 | 1002.5 | |
| 20260905010106 | 56 | 0.0 | 0.0 | 0.00 | 1.19 | 0.00 | 94 | 1002.4 | |
| 20260905004554 | 56 | 0.0 | 0.0 | 0.00 | 1.19 | 0.00 | 94 | 1002.3 | |
| 20260905003051 | 56 | 0.0 | 0.0 | 0.00 | 1.19 | 0.00 | 92 | 1002.2 | |
| 20260905001557 | 56 | 0.0 | 0.0 | 0.00 | 1.19 | 0.00 | 92 | 1002.1 | |
| 20260905000053 | 56 | 0.0 | 0.0 | 0.00 | 1.19 | 0.00 | 92 | 1002.2 | |
| 20260904234553 | 56 | 0.0 | 0.0 | 0.00 | 1.19 | 0.00 | 91 | 1002.1 | |
| 20260904233050 | 57 | 0.0 | 0.0 | 0.00 | 1.19 | 0.00 | 91 | 1002.1 | |
| 20260904231559 | 57 | 0.0 | 0.0 | 0.00 | 1.19 | 0.00 | 91 | 1002.0 | |
| 20260904224606 | 56 | 0.0 | 0.0 | 0.00 | 1.19 | 0.00 | 92 | 1001.9 | |
| 20260904223101 | 56 | 0.0 | 0.0 | 0.00 | 1.19 | 0.00 | 92 | 1001.6 | |
| 20260904221554 | 56 | 0.0 | 0.0 | 0.00 | 1.19 | 0.00 | 93 | 1001.6 | |
| 20260904220055 | 56 | 0.0 | 0.0 | 0.00 | 1.19 | 0.00 | 93 | 1001.5 | |
| 20260904214556 | 56 | 0.0 | 0.0 | 0.00 | 1.19 | 1.19 | 93 | 1001.4 | |
| 20260904213057 | 56 | 0.0 | 0.0 | 0.00 | 1.19 | 1.19 | 94 | 1001.2 | |
| 20260904211558 | 56 | 0.0 | 0.0 | 0.00 | 1.19 | 1.19 | 96 | 1001.0 | |
| 20260904210110 | 56 | 0.0 | 0.0 | 0.01 | 1.19 | 1.19 | 97 | 1001.1 | |
| 20260904204557 | 56 | 0.0 | 0.0 | 0.05 | 1.19 | 1.19 | 97 | 1000.9 | |
| 20260904203055 | 56 | 0.0 | 0.0 | 0.09 | 1.19 | 1.19 | 98 | 1000.8 | |
| 20260904201551 | 57 | 0.0 | 0.0 | 0.09 | 1.19 | 1.19 | 98 | 1000.5 | |
| 20260904200049 | 57 | 0.0 | 0.0 | 0.07 | 1.18 | 1.18 | 98 | 1000.5 | |
| 20260904194557 | 57 | 0.0 | 0.0 | 0.03 | 1.14 | 1.14 | 97 | 1000.2 | |
| 20260904193058 | 57 | 0.0 | 0.0 | 0.00 | 1.10 | 1.10 | 97 | 1000.3 | |
| 20260904191556 | 57 | 0.0 | 0.0 | 0.00 | 1.10 | 1.10 | 97 | 1000.2 | |
| 20260904190052 | 57 | 0.0 | 0.0 | 0.00 | 1.10 | 1.10 | 97 | 1000.0 | |
| 20260904184600 | 57 | 0.0 | 0.0 | 0.00 | 1.10 | 1.10 | 97 | 1000.1 | |
| 20260904183053 | 57 | 0.0 | 0.0 | 0.00 | 1.10 | 1.10 | 97 | 1000.1 | |
| 20260904181551 | 57 | 0.0 | 0.0 | 0.00 | 1.10 | 1.10 | 97 | 1000.1 | |
| 20260904180057 | 58 | 0.0 | 0.0 | 0.00 | 1.09 | 1.09 | 97 | 1000.2 | |
| 20260904174553 | 58 | 0.0 | 0.0 | 0.00 | 1.09 | 1.09 | 98 | 1000.2 | |
| 20260904173050 | 58 | 0.0 | 0.0 | 0.00 | 1.09 | 1.09 | 98 | 1000.2 | |
| 20260904171600 | 58 | 0.0 | 0.0 | 0.00 | 1.09 | 1.09 | 98 | 999.9 | |
| 20260904170057 | 58 | 0.0 | 0.0 | 0.00 | 1.09 | 1.09 | 98 | 999.8 | |
| 20260904164557 | 58 | 0.0 | 0.0 | 0.00 | 1.09 | 1.09 | 98 | 1000.0 | |
| 20260904163049 | 57 | 0.0 | 0.0 | 0.00 | 1.09 | 1.09 | 98 | 1000.0 | |
| 20260904161556 | 57 | 0.0 | 0.0 | 0.00 | 1.09 | 1.09 | 98 | 1000.1 | |
| 20260904160055 | 58 | 0.0 | 0.0 | 0.00 | 1.09 | 1.09 | 98 | 1000.3 | |
| 20260904154557 | 58 | 0.0 | 0.0 | 0.00 | 1.09 | 1.09 | 98 | 1000.0 | |
| 20260904153100 | 58 | 0.0 | 0.0 | 0.02 | 1.09 | 1.09 | 99 | 1000.0 | |
| 20260904151557 | 58 | 0.0 | 0.0 | 0.07 | 1.09 | 1.09 | 99 | 1000.1 | |
| 20260904150053 | 58 | 0.0 | 0.0 | 0.11 | 1.09 | 1.09 | 99 | 999.8 | |
| 20260904144550 | 57 | 0.0 | 0.0 | 0.23 | 1.09 | 1.08 | 98 | 1000.1 | |
| 20260904143059 | 57 | 0.0 | 0.0 | 0.48 | 1.07 | 1.07 | 98 | 1000.5 | |
| 20260904141556 | 58 | 0.0 | 0.0 | 0.60 | 1.02 | 1.01 | 98 | 1000.7 | |
| 20260904140139 | 57 | 0.0 | 0.0 | 0.70 | 0.98 | 0.97 | 98 | 1000.7 | |
| 20260904134604 | 57 | 0.0 | 0.0 | 0.63 | 0.85 | 0.84 | 97 | 1000.6 | |
| 20260904133103 | 58 | 0.0 | 0.0 | 0.40 | 0.59 | 0.59 | 97 | 1000.5 | |
| 20260904131555 | 59 | 0.0 | 0.0 | 0.25 | 0.41 | 0.40 | 97 | 1000.4 | |
| 20260904130055 | 59 | 0.0 | 0.0 | 0.12 | 0.26 | 0.25 | 97 | 1000.6 | |
| 20260904124617 | 59 | 0.0 | 0.0 | 0.08 | 0.22 | 0.20 | 98 | 1000.9 |